Lytton, British Columbia

9:10 AM PDT on April 21, 2018 (GMT -0700)
Lytton

Weather History for CWLY - November, 2012

Change the Weather History Date:

Tuesday, November 20, 2012

  Actual Average Record
Temperature  
Mean Temperature 40 °F -  
Max Temperature 43 °F 36 °F 59 °F (2002)
Min Temperature 37 °F 26 °F 6 °F (1996)
Degree Days  
Heating Degree Days 25    
Moisture  
Dew Point 39 °F    
Average Humidity 94    
Maximum Humidity 100    
Minimum Humidity 71    
Precipitation  
Precipitation 0.55 in 0.09 in - ()
Sea Level Pressure  
Sea Level Pressure 29.57 in    
Wind  
Wind Speed 6 mph ()    
Max Wind Speed 28 mph    
Max Gust Speed 41 mph    
Visibility 5.5 miles    
Events      
Averages and records for this station are not official NWS values.
T = Trace of Precipitation, MM = Missing Value Source: Averaged Metar Reports

Daily Weather History Graph

Daily Weather History Graph

Search for Another Location

Airport or City:

Astronomy

Nov. 20, 2012 Rise Set
Actual Time 7:28 AM PST 4:14 PM PST
Civil Twilight 6:52 AM PST 4:51 PM PST
Nautical Twilight 6:12 AM PST 5:31 PM PST
Astronomical Twilight 5:33 AM PST 6:09 PM PST
Moon 12:43 PM PST (11/20) No Moon Set
Length of Visible Light 9h 58m
Length of Day
8h 45m
First Quarter, 52% of the Moon is Illuminated
Nov 20
First Quarter
Nov 28
Full
Dec 6
Last Quarter
Dec 13
New
Dec 19
First Quarter

Hourly Weather History & Observations

Time (PST) Temp. Windchill Dew Point Humidity Pressure Visibility Wind Dir Wind Speed Gust Speed Precip Events Conditions
12:00 AM 42.8 °F 32.7 °F 37.4 °F 81% 29.59 in 9.0 mi South 27.6 mph 41.4 mph N/A   Clear
1:00 AM 43 °F - 37 °F 72% 29.61 in 9 mi South 25.3 mph - -  
1:00 AM 42.8 °F 33.3 °F 37.4 °F 81% 29.61 in 9.0 mi South 24.2 mph 38.0 mph N/A   Clear
2:00 AM 42.8 °F 34.8 °F 37.4 °F 81% 29.65 in 9.0 mi South 17.3 mph 31.1 mph N/A   Clear
3:00 AM 42.8 °F 36.2 °F 37.4 °F 81% 29.67 in 9.0 mi SSW 12.7 mph 31.1 mph N/A   Clear
4:00 AM 43 °F - 37 °F 71% 29.65 in 9 mi South 19.6 mph - -  
4:00 AM 42.8 °F 34.3 °F 37.4 °F 81% 29.65 in 9.0 mi SSW 19.6 mph 28.8 mph N/A   Clear
5:00 AM 42.8 °F 37.0 °F 37.4 °F 81% 29.67 in 9.0 mi SE 10.4 mph - N/A   Clear
6:00 AM 42.8 °F 38.6 °F 37.4 °F 81% 29.67 in 9.0 mi SE 6.9 mph - N/A   Clear
6:28 AM 41.0 °F 39.0 °F 37.4 °F 87% 29.66 in 9.0 mi SSE 3.5 mph - N/A   Partly Cloudy
7:00 AM 40 °F - 37 °F 85% 29.68 in 9 mi Calm Calm - -  
7:00 AM 39.2 °F - 37.4 °F 93% 29.68 in 9.0 mi NW 2.3 mph - N/A   Mostly Cloudy
7:14 AM 39.2 °F 37.0 °F 37.4 °F 93% 29.66 in 9.0 mi North 3.5 mph - N/A   Partly Cloudy
7:20 AM 39.2 °F 37.0 °F 37.4 °F 93% 29.66 in 9.0 mi North 3.5 mph - N/A   Mostly Cloudy
7:21 AM 39.2 °F 35.9 °F 37.4 °F 93% 29.66 in 9.0 mi North 4.6 mph - N/A   Mostly Cloudy
7:39 AM 39.2 °F - 37.4 °F 93% 29.66 in 9.0 mi NNE 2.3 mph - N/A   Overcast
7:51 AM 39.2 °F - 37.4 °F 93% 29.66 in 9.0 mi NNW 2.3 mph - N/A   Overcast
8:00 AM 39.2 °F 37.0 °F 37.4 °F 93% 29.68 in 9.0 mi North 3.5 mph - N/A   Overcast
8:12 AM 39.2 °F - 37.4 °F 93% 29.65 in 9.0 mi North 2.3 mph - N/A   Overcast
8:23 AM 39.2 °F - 37.4 °F 93% 29.65 in 9.0 mi Calm Calm - N/A   Overcast
8:44 AM 39.2 °F - 37.4 °F 93% 29.64 in 9.0 mi Calm Calm - N/A   Overcast
9:00 AM - - - N/A% 29.63 in 9.0 mi SSE 2.3 mph - N/A   Overcast
10:00 AM - - - %  in 9 mi Calm Calm - -   Overcast
10:00 AM - - - N/A% 29.61 in 9.0 mi Calm Calm - N/A   Overcast
10:14 AM - - - N/A% 29.62 in - South 4.6 mph - N/A   Overcast
10:43 AM - - - N/A% 29.60 in - NW 2.3 mph - N/A   Mostly Cloudy
11:00 AM - - - N/A% 29.59 in - Calm Calm - N/A   Mostly Cloudy
12:00 PM - - - N/A% 29.56 in - Calm Calm - N/A   Mostly Cloudy
12:09 PM - - - N/A% 29.56 in - SSW 2.3 mph - N/A   Overcast
12:22 PM - - - N/A% 29.56 in - SE 2.3 mph - N/A   Overcast
12:46 PM - - - N/A% 29.55 in - Calm Calm - N/A   Overcast
12:58 PM - - - N/A% 29.55 in - South 4.6 mph - N/A   Mostly Cloudy
1:00 PM - - - %  in - South 3.5 mph - -  
1:00 PM - - - N/A% 29.55 in - SSE 4.6 mph - N/A   Scattered Clouds
2:00 PM 42.8 °F - 39.2 °F 87% 29.54 in 9.0 mi North - - N/A   Clear
2:11 PM 41.0 °F - 39.2 °F 93% 29.51 in 9.0 mi North - - N/A   Partly Cloudy
2:26 PM 41.0 °F - 39.2 °F 93% 29.51 in 9.0 mi North - - N/A   Scattered Clouds
2:35 PM 41.0 °F - 39.2 °F 93% 29.50 in 9.0 mi North - - N/A   Mostly Cloudy
2:42 PM 41.0 °F - 39.2 °F 93% 29.50 in 9.0 mi North - - N/A   Mostly Cloudy
2:48 PM 41.0 °F - 39.2 °F 93% 29.50 in 9.0 mi North - - N/A   Overcast
2:53 PM 41.0 °F - 39.2 °F 93% 29.50 in 8.0 mi North - - N/A   Overcast
3:00 PM 41.0 °F - 39.2 °F 93% 29.52 in 7.0 mi North - - N/A   Overcast
3:01 PM 41.0 °F - 39.2 °F 93% 29.50 in 6.0 mi North - - N/A   Overcast
3:22 PM 41.0 °F - 39.2 °F 93% 29.50 in 6.0 mi North - - N/A   Overcast
3:25 PM 41.0 °F - 39.2 °F 93% 29.50 in 7.0 mi North - - N/A   Overcast
4:00 PM 41 °F - 40 °F 93% 29.52 in 9 mi Calm Calm - -   Overcast
4:00 PM 41.0 °F - 39.2 °F 93% 29.52 in 9.0 mi North - - N/A   Overcast
4:16 PM 41.0 °F - 39.2 °F 93% 29.50 in 9.0 mi North - - N/A   Overcast
4:25 PM 41.0 °F - 39.2 °F 93% 29.49 in 9.0 mi North - - N/A   Mostly Cloudy
4:28 PM 41.0 °F - 39.2 °F 93% 29.49 in 9.0 mi North - - N/A   Overcast
4:38 PM 41.0 °F 39.0 °F 39.2 °F 93% 29.49 in 9.0 mi SE 3.5 mph - N/A   Mostly Cloudy
4:41 PM 41.0 °F - 39.2 °F 93% 29.49 in 9.0 mi SE 2.3 mph - N/A   Mostly Cloudy
4:43 PM 41.0 °F - 41.0 °F 100% 29.49 in 9.0 mi South 2.3 mph - N/A   Mostly Cloudy
5:00 PM 41.0 °F - 41.0 °F 100% 29.51 in 9.0 mi NE 2.3 mph - N/A   Mostly Cloudy
5:14 PM 41.0 °F - 41.0 °F 100% 29.50 in 9.0 mi Calm Calm - N/A   Overcast
5:31 PM 41.0 °F 38.0 °F 41.0 °F 100% 29.50 in 9.0 mi NNE 4.6 mph - N/A   Overcast
5:58 PM 41.0 °F - 41.0 °F 100% 29.51 in 2.4 mi North 2.3 mph - N/A   Overcast
6:00 PM 41.0 °F - 41.0 °F 100% 29.53 in 2.0 mi Calm Calm - N/A   Overcast
6:03 PM 41.0 °F 38.0 °F 41.0 °F 100% 29.51 in 2.0 mi North 4.6 mph - N/A   Overcast
6:14 PM 41.0 °F 38.0 °F 41.0 °F 100% 29.52 in 2.1 mi NNE 4.6 mph - N/A   Overcast
6:17 PM 41.0 °F - 41.0 °F 100% 29.52 in 2.1 mi Calm Calm - N/A   Overcast
6:18 PM 41.0 °F - 41.0 °F 100% 29.52 in 2.1 mi Calm Calm - N/A   Overcast
6:27 PM 41.0 °F - 41.0 °F 100% 29.52 in 2.0 mi NW 2.3 mph - N/A   Overcast
6:32 PM 41.0 °F 39.0 °F 41.0 °F 100% 29.53 in 1.1 mi North 3.5 mph - N/A   Overcast
6:33 PM 41.0 °F 39.0 °F 41.0 °F 100% 29.53 in 0.8 mi NNE 3.5 mph - N/A   Overcast
6:35 PM 41.0 °F - 41.0 °F 100% 29.53 in 0.6 mi ENE 2.3 mph - N/A   Overcast
6:39 PM 41.0 °F 38.0 °F 41.0 °F 100% 29.53 in 0.6 mi NNE 4.6 mph - N/A   Overcast
6:43 PM 41.0 °F 38.0 °F 41.0 °F 100% 29.53 in 1.2 mi NE 4.6 mph - N/A   Overcast
6:46 PM 41.0 °F 37.1 °F 41.0 °F 100% 29.53 in 1.4 mi NNE 5.8 mph - N/A   Overcast
6:53 PM 41.0 °F - 41.0 °F 100% 29.53 in 2.5 mi Calm Calm - N/A   Overcast
7:00 PM 41 °F - 41 °F 100% 29.56 in 3 mi Calm Calm - -  
7:00 PM 41.0 °F - 41.0 °F 100% 29.56 in 3.5 mi Calm Calm - N/A   Mostly Cloudy
7:22 PM 41.0 °F - 41.0 °F 100% 29.54 in 1.6 mi Calm Calm - N/A   Overcast
7:23 PM 41.0 °F - 41.0 °F 100% 29.54 in 1.4 mi Calm Calm - N/A   Overcast
7:27 PM 41.0 °F - 41.0 °F 100% 29.54 in 1.0 mi Calm Calm - N/A   Overcast
7:34 PM 41.0 °F - 41.0 °F 100% 29.54 in 1.5 mi NNW 2.3 mph - N/A   Overcast
7:46 PM 41.0 °F - 41.0 °F 100% 29.54 in 8.0 mi North 2.3 mph - N/A   Overcast
7:49 PM 41.0 °F - 41.0 °F 100% 29.54 in 7.0 mi NNW 2.3 mph - N/A   Overcast
7:50 PM 41.0 °F - 41.0 °F 100% 29.54 in 7.0 mi NNW 2.3 mph - N/A   Overcast
7:55 PM 41.0 °F 39.0 °F 41.0 °F 100% 29.55 in 2.0 mi NNW 3.5 mph - N/A   Overcast
7:57 PM 41.0 °F 39.0 °F 41.0 °F 100% 29.55 in 1.4 mi North 3.5 mph - N/A   Overcast
8:00 PM 41.0 °F 38.0 °F 39.2 °F 93% 29.57 in 1.1 mi North 4.6 mph - N/A   Overcast
8:07 PM 41.0 °F 38.0 °F 39.2 °F 93% 29.55 in 4.0 mi North 4.6 mph - N/A   Mostly Cloudy
8:08 PM 41.0 °F 39.0 °F 39.2 °F 93% 29.55 in 7.0 mi North 3.5 mph - N/A   Mostly Cloudy
8:10 PM 41.0 °F 39.0 °F 37.4 °F 87% 29.55 in 9.0 mi NNW 3.5 mph - N/A   Mostly Cloudy
8:27 PM 41.0 °F - 39.2 °F 93% 29.55 in 9.0 mi NNE 2.3 mph - N/A   Overcast
8:47 PM 41.0 °F 39.0 °F 39.2 °F 93% 29.55 in 3.5 mi North 3.5 mph - N/A   Overcast
9:00 PM 41.0 °F - 39.2 °F 93% 29.57 in 3.0 mi Calm Calm - N/A   Overcast
9:01 PM 41.0 °F - 39.2 °F 93% 29.57 in 2.1 mi Calm Calm - N/A   Overcast
9:03 PM 41.0 °F - 39.2 °F 93% 29.57 in 1.1 mi SSW 2.3 mph - N/A   Overcast
9:06 PM 41.0 °F - 39.2 °F 93% 29.58 in 1.0 mi Calm Calm - N/A   Overcast
9:15 PM 41.0 °F - 39.2 °F 93% 29.59 in 1.5 mi SSE 2.3 mph - N/A   Overcast
9:23 PM 39.2 °F - 39.2 °F 100% 29.60 in 1.1 mi SSE 2.3 mph - N/A   Overcast
9:26 PM 39.2 °F - 39.2 °F 100% 29.59 in 1.0 mi Calm Calm - N/A   Overcast
9:27 PM 39.2 °F - 39.2 °F 100% 29.59 in 0.6 mi North 2.3 mph - N/A   Overcast
9:29 PM 39.2 °F 37.0 °F 39.2 °F 100% 29.59 in 0.4 mi NNE 3.5 mph - N/A   Overcast
9:34 PM 39.2 °F - 39.2 °F 100% 29.58 in 0.2 mi North 2.3 mph - N/A   Overcast
9:43 PM 39.2 °F - 37.4 °F 93% 29.59 in 1.0 mi Calm Calm - N/A   Overcast
9:45 PM 39.2 °F - 37.4 °F 93% 29.60 in 1.8 mi Calm Calm - N/A   Overcast
9:51 PM 39.2 °F - 37.4 °F 93% 29.60 in 2.5 mi ENE 2.3 mph - N/A   Overcast
9:58 PM 39.2 °F 37.0 °F 37.4 °F 93% 29.60 in 2.5 mi ENE 3.5 mph - N/A   Overcast
10:00 PM 38 °F - 38 °F 98%  in 3 mi NE 2.3 mph - -   Overcast
10:00 PM 39.2 °F 37.0 °F 37.4 °F 93% 29.60 in 3.0 mi ENE 3.5 mph - N/A   Overcast
10:01 PM 37.4 °F - 37.4 °F 100% 29.60 in 3.0 mi ENE 2.3 mph - N/A   Overcast
10:18 PM 37.4 °F - 37.4 °F 100% 29.60 in 6.0 mi NNW 2.3 mph - N/A   Overcast
10:24 PM 39.2 °F - 39.2 °F 100% 29.60 in 9.0 mi Calm Calm - N/A   Overcast
10:30 PM 39.2 °F - 39.2 °F 100% 29.60 in 9.0 mi NNE 2.3 mph - N/A   Overcast
10:53 PM 39.2 °F - 37.4 °F 93% 29.60 in 9.0 mi Calm Calm - N/A   Overcast
10:58 PM 37.4 °F - 37.4 °F 100% 29.60 in 9.0 mi Calm Calm - N/A   Overcast
11:00 PM 39.2 °F - 37.4 °F 93% 29.60 in 9.0 mi Calm Calm - N/A   Overcast
11:02 PM 37.4 °F - 37.4 °F 100% 29.60 in 9.0 mi Calm Calm - N/A   Overcast
11:05 PM 39.2 °F - 37.4 °F 93% 29.60 in 2.1 mi Calm Calm - N/A   Overcast
11:07 PM 39.2 °F - 37.4 °F 93% 29.60 in 1.2 mi Calm Calm - N/A   Overcast
11:12 PM 39.2 °F - 37.4 °F 93% 29.60 in 1.0 mi North 2.3 mph - N/A   Overcast
11:13 PM 39.2 °F - 37.4 °F 93% 29.60 in 1.0 mi North 2.3 mph - N/A   Overcast
11:16 PM 39.2 °F 37.0 °F 37.4 °F 93% 29.61 in 0.6 mi North 3.5 mph - N/A   Overcast
11:20 PM 39.2 °F 37.0 °F 37.4 °F 93% 29.61 in 0.6 mi NNE 3.5 mph - N/A   Overcast
11:25 PM 39.2 °F 34.2 °F 37.4 °F 93% 29.61 in 1.1 mi North 6.9 mph - N/A   Overcast
11:27 PM 39.2 °F 35.0 °F 37.4 °F 93% 29.61 in 3.0 mi NNE 5.8 mph - N/A   Overcast
11:34 PM 39.2 °F 37.0 °F 37.4 °F 93% 29.61 in 9.0 mi North 3.5 mph - N/A   Overcast
11:38 PM 39.2 °F 37.0 °F 37.4 °F 93% 29.61 in 6.0 mi North 3.5 mph - N/A   Overcast
11:57 PM 39.2 °F - 37.4 °F 93% 29.62 in 9.0 mi Calm Calm - N/A   Overcast